This demonstration page uses our WeatherBlox Daily Observations layout. Learn more.

Left ArrowRight Arrow

40.92945, -100.16068

Hourly Observations for April 6, 2019

Temp ( °F °C ) Dew Point ( °F °C ) Humidity (%) Winds ( mph kmh ) Pressure ( in mb ) Visibility ( mi km ) Precip ( " mm )
12:15 am 00:15 Clear 62 16.5 51 10.7 69 69 S 24 39 29.71 1006 10 16 0.00 0.00
12:35 am 00:35 Clear 61 16.1 51 10.5 70 70 S 22 35 29.72 1006 10 16 0.00 0.00
12:55 am 00:55 Clear 61 16 51 10.5 70 70 S 21 33 29.72 1006 10 16 0.00 0.00
1:15 am 01:15 Clear 60 15.6 51 10.5 72 72 S 22 35 29.72 1006 10 16 0.00 0.00
1:35 am 01:35 Clear 60 15.6 51 10.5 72 72 S 18 30 29.72 1006 10 16 0.00 0.00
1:55 am 01:55 Clear 60 15.4 51 10.3 72 72 S 20 31 29.73 1007 10 16 0.00 0.00
2:15 am 02:15 Clear 59 15 51 10.3 74 74 S 17 28 29.73 1007 10 16 0.00 0.00
2:35 am 02:35 Clear 58 14.6 50 10.2 75 75 S 15 24 29.73 1007 10 16 0.00 0.00
2:55 am 02:55 Clear 58 14.5 50 10.2 76 76 SSE 12 19 29.74 1007 10 16 0.00 0.00
3:15 am 03:15 Clear 58 14.2 50 10.1 77 77 SE 7 11 29.74 1007 10 16 0.00 0.00
3:35 am 03:35 Clear 58 14.3 50 10.1 76 76 SSE 9 15 29.74 1007 10 16 0.00 0.00
3:55 am 03:55 Clear 57 14.1 50 10.1 77 77 SE 5 7 29.73 1007 10 16 0.00 0.00
4:15 am 04:15 Clear 56 13.2 49 9.7 80 80 SSE 7 11 29.74 1007 10 16 0.00 0.00
4:35 am 04:35 Clear 56 13.3 50 10 81 81 SSE 7 11 29.74 1007 10 16 0.00 0.00
4:55 am 04:55 Clear 56 13.5 50 10 80 80 SSE 7 11 29.74 1007 10 16 0.00 0.00
5:15 am 05:15 Partly Cloudy 57 13.8 50 10.1 79 79 SSE 7 11 29.74 1007 10 16 0.00 0.00
5:35 am 05:35 Mostly Cloudy 58 14.3 51 10.3 77 77 Calm 29.74 1007 10 16 0.00 0.00
5:55 am 05:55 Cloudy 58 14.6 50 10.1 75 75 SE 5 7 29.74 1007 10 16 0.00 0.00
6:15 am 06:15 Partly Cloudy 58 14.5 50 10.1 75 75 SE 3 6 29.76 1008 10 16 0.00 0.00
6:35 am 06:35 Clear 57 14.1 50 10 77 77 Calm 29.76 1008 10 16 0.00 0.00
6:55 am 06:55 Clear 56 13.6 49 9.6 77 77 SSE 5 7 29.78 1008 10 16 0.00 0.00
7:15 am 07:15 Sunny 57 13.8 49 9.5 75 75 S 8 13 29.78 1008 10 16 0.00 0.00
7:35 am 07:35 Sunny 55 12.5 49 9.4 82 82 SSE 8 13 29.79 1009 10 16 0.00 0.00
7:55 am 07:55 Sunny 55 13 50 9.8 81 81 S 10 17 29.77 1008 10 16 0.00 0.00
8:15 am 08:15 Sunny 55 13 49 9.7 81 81 SSE 6 9 29.77 1008 10 16 0.00 0.00
8:35 am 08:35 Sunny 55 12.8 50 9.9 83 83 ESE 6 9 29.78 1008 10 16 0.00 0.00
8:55 am 08:55 Sunny 56 13.6 51 10.5 82 82 ESE 7 11 29.79 1009 10 16 0.00 0.00
9:15 am 09:15 Sunny 59 14.8 51 10.5 76 76 SSE 14 22 29.78 1008 10 16 0.00 0.00
9:35 am 09:35 Sunny 60 15.5 51 10.8 74 74 S 13 20 29.77 1008 10 16 0.00 0.00
9:55 am 09:55 Sunny 62 16.7 51 10.4 67 67 S 13 20 29.76 1008 10 16 0.00 0.00
10:15 am 10:15 Sunny 64 17.9 50 9.9 60 60 SSW 17 28 29.75 1007 10 16 0.00 0.00
10:35 am 10:35 Sunny 65 18.5 49 9.6 56 56 SSW 16 26 29.75 1007 10 16 0.00 0.00
10:55 am 10:55 Sunny 65 18.4 48 9.1 55 55 SSW 13 20 29.74 1007 10 16 0.00 0.00
11:15 am 11:15 Sunny 66 19 47 8.6 51 51 SW 16 26 29.73 1007 10 16 0.00 0.00
11:35 am 11:35 Partly Cloudy 66 19 47 8.6 51 51 SSW 15 24 29.75 1007 10 16 0.00 0.00
11:55 am 11:55 Partly Cloudy 68 19.8 47 8.6 49 49 SSW 16 26 29.74 1007 10 16 0.00 0.00
12:15 pm 12:15 Sunny 68 19.8 47 8.5 48 48 SW 20 31 29.73 1007 10 16 0.00 0.00
12:35 pm 12:35 Sunny 69 20.5 47 8.5 46 46 SSW 17 28 29.72 1006 10 16 0.00 0.00
12:55 pm 12:55 Mostly Cloudy 70 21.1 46 7.6 42 42 SSW 23 37 29.72 1007 10 16 0.00 0.00
1:15 pm 13:15 Mostly Cloudy 70 21.1 46 7.9 43 43 S 20 31 29.71 1006 10 16 0.00 0.00
1:35 pm 13:35 Partly Cloudy 70 21.3 45 7.3 41 41 SSW 22 35 29.69 1005 10 16 0.00 0.00
1:55 pm 13:55 Sunny 71 21.5 45 7 39 39 SSW 18 30 29.68 1005 10 16 0.00 0.00
2:15 pm 14:15 Mostly Cloudy 71 21.4 45 7.3 40 40 SSW 18 30 29.67 1005 10 16 0.00 0.00
2:35 pm 14:35 Cloudy 71 21.5 45 7 39 39 SSW 17 28 29.66 1004 10 16 0.00 0.00
2:55 pm 14:55 Mostly Cloudy 71 21.7 45 7.1 39 39 SSW 20 31 29.66 1004 10 16 0.00 0.00
3:15 pm 15:15 Partly Cloudy 72 22 44 6.8 38 38 SSW 20 31 29.66 1004 10 16 0.00 0.00
3:35 pm 15:35 Sunny 73 22.6 46 7.8 39 39 S 18 30 29.65 1004 10 16 0.00 0.00
3:55 pm 15:55 Sunny 73 22.5 46 7.7 39 39 SSW 16 26 29.64 1004 10 16 0.00 0.00
4:15 pm 16:15 Sunny 73 22.6 46 7.9 39 39 S 17 28 29.63 1003 10 16 0.00 0.00
4:35 pm 16:35 Sunny 73 22.6 44 6.8 36 36 SSW 16 26 29.62 1003 10 16 0.00 0.00
4:55 pm 16:55 Sunny 72 22.3 46 7.5 39 39 S 16 26 29.62 1003 10 16 0.00 0.00
5:15 pm 17:15 Sunny 71 21.5 46 7.6 41 41 SSE 17 28 29.63 1003 10 16 0.00 0.00
5:35 pm 17:35 Sunny 70 21.2 46 7.7 42 42 SSE 16 26 29.62 1003 10 16 0.00 0.00
5:55 pm 17:55 Sunny 70 21 46 7.9 43 43 SSE 14 22 29.61 1003 10 16 0.00 0.00
6:15 pm 18:15 Sunny 70 21 47 8.1 44 44 S 14 22 29.61 1003 10 16 0.00 0.00
6:35 pm 18:35 Sunny 70 21.2 47 8.1 43 43 SSE 15 24 29.62 1003 10 16 0.00 0.00
6:55 pm 18:55 Sunny 69 20.8 46 8 44 44 SSE 15 24 29.64 1004 10 16 0.00 0.00
7:15 pm 19:15 Sunny with Nearby Thunderstorms 68 20.1 47 8.5 47 47 SSE 15 24 29.64 1004 10 16 0.00 0.00
7:35 pm 19:35 Sunny 67 19.2 48 8.7 51 51 SSE 12 19 29.66 1004 10 16 0.00 0.00
7:55 pm 19:55 Sunny 65 18.2 48 9 55 55 SSE 10 17 29.67 1005 10 16 0.00 0.00
8:15 pm 20:15 Clear 64 17.5 48 9 58 58 SSE 10 17 29.67 1005 10 16 0.00 0.00
8:35 pm 20:35 Clear 63 17.2 48 9 59 59 SSE 13 20 29.69 1005 10 16 0.00 0.00
8:55 pm 20:55 Partly Cloudy 63 17.1 49 9.4 61 61 SE 14 22 29.70 1006 10 16 0.00 0.00
9:15 pm 21:15 Mostly Cloudy with Nearby Thunderstorms 62 16.7 50 10.1 65 65 SSE 10 17 29.71 1006 10 16 0.00 0.00
9:35 pm 21:35 Mostly Cloudy 60 15.6 52 11 74 74 SE 10 17 29.72 1006 10 16 0.00 0.00
9:55 pm 21:55 Clear 58 14.6 52 11.1 80 80 SSE 10 17 29.73 1007 10 16 0.00 0.00
10:15 pm 22:15 Clear 58 14.3 52 11 81 81 SSE 9 15 29.74 1007 10 16 0.00 0.00
10:35 pm 22:35 Clear 58 14.3 52 11 81 81 SSE 13 20 29.75 1008 10 16 0.00 0.00
10:55 pm 22:55 Clear 57 13.8 51 10.8 82 82 SSE 12 19 29.77 1008 10 16 0.00 0.00
11:15 pm 23:15 Partly Cloudy 57 13.9 52 11.2 84 84 SSE 14 22 29.76 1008 10 16 0.00 0.00
11:35 pm 23:35 Partly Cloudy 56 13.6 52 11.1 85 85 SSE 8 13 29.75 1007 10 16 0.00 0.00
11:55 pm 23:55 Clear 57 13.8 53 11.5 86 86 SE 7 11 29.75 1007 10 16 0.00 0.00

Powered by AerisWeather